This is the latest recevied weather packets stored in our database for station/object N5SOR-1. If no packets are shown the sender has not sent any weather packets the latest 10 day(s).
| Time | Temp. | Humidity | Pressure | Rain* | Wind** | Luminosity | Snow |
|---|---|---|---|---|---|---|---|
| 1777775373 | 15.56° C | 53% | 1023.5 hPa | 0 mm | - | 0 W/m² | - |
| 1777774713 | 16.11° C | 51% | 1023.2 hPa | 0 mm | - | 0 W/m² | - |
| 1777774052 | 16.11° C | 50% | 1023 hPa | 0 mm | - | 0 W/m² | - |
| 1777773392 | 16.11° C | 50% | 1022.7 hPa | 0 mm | - | 0 W/m² | - |
| 1777772731 | 16.67° C | 49% | 1022.7 hPa | 0 mm | - | 0 W/m² | - |
| 1777772071 | 16.67° C | 48% | 1022.7 hPa | 0 mm | - | 0 W/m² | - |
| 1777771410 | 17.22° C | 46% | 1022.6 hPa | 0 mm | - | 16 W/m² | - |
| 1777770750 | 17.22° C | 46% | 1022.3 hPa | 0 mm | - | 84 W/m² | - |
| 1777770088 | 17.78° C | 44% | 1022.6 hPa | 0 mm | - | 107 W/m² | - |
| 1777769428 | 17.78° C | 43% | 1022.6 hPa | 0 mm | - | 204 W/m² | - |
| 1777768767 | 17.78° C | 43% | 1022.7 hPa | 0 mm | - | 98 W/m² | - |
| 1777768107 | 18.33° C | 42% | 1022.8 hPa | 0 mm | - | 301 W/m² | - |
| 1777767446 | 18.33° C | 42% | 1022.7 hPa | 0 mm | - | 367 W/m² | - |
| 1777766785 | 18.89° C | 42% | 1022.5 hPa | 0 mm | - | 438 W/m² | - |
| 1777766125 | 18.89° C | 42% | 1022.7 hPa | 0 mm | - | 394 W/m² | - |
| 1777765464 | 18.33° C | 42% | 1022.4 hPa | 0 mm | - | 503 W/m² | - |
| 1777764803 | 18.33° C | 41% | 1022.4 hPa | 0 mm | - | 105 W/m² | - |
| 1777764143 | 19.44° C | 41% | 1022.5 hPa | 0 mm | - | 601 W/m² | - |
| 1777763482 | 18.89° C | 40% | 1022.7 hPa | 0 mm | - | 622 W/m² | - |
| 1777762822 | 18.89° C | 42% | 1022.6 hPa | 0 mm | - | 649 W/m² | - |
| 1777762161 | 18.89° C | 41% | 1022.8 hPa | 0 mm | - | 710 W/m² | - |
| 1777761501 | 18.89° C | 43% | 1022.8 hPa | 0 mm | - | 768 W/m² | - |
| 1777760840 | 18.89° C | 42% | 1022.8 hPa | 0 mm | - | 796 W/m² | - |
| 1777760179 | 18.89° C | 43% | 1022.8 hPa | 0 mm | - | 281 W/m² | - |
| 1777759519 | 19.44° C | 42% | 1023.1 hPa | 0 mm | - | 1011 W/m² | - |
* Rain latest hour (hover to see other rain measurements)
** Current wind speed in m/s (hover to see current wind gust speed)